Погода в Петруни

Погода в Петруни : погода сейчас, прогноз погоды и архив. Всё, что Вы хотите узнать о погоде в Петруни!

Поиск расширенной информации на нашем сайте:

Другие новости

Новости СМИ2

Главная страница сайта

Новости сайта

03.07.2017

Напоминаем, что на нашем специализированном сайте Метеоцентр.Азия вы можете получить высокодетализированные автоматические прогнозы погоды по пунктам России, СНГ и мира в авиационном формате (включающие направление и скорость ветра, видимость, явления погоды, количество и форму облачности, нижнюю и верхнюю границу облачности).

Рекомендуем: Лада с пробегом купить авто с пробегом.

Погода в Петруни - сегодня

Время (UTC), дата Ветер
(°,м/с) 
Видим.   Явления Облачность Т
(°С)
Тd
(°С)
f(%) Тe
(°С)
Pmin
(гПа)
dP
(гПа)
Po
(мм)
O2
(г/м3)
Тmin Tmax R s Состояние
почвы
03 09.10.18 210 (ЮЗ) 8000 м  слаб. дождь{морось}  10/3 300 м средняя 
[Frnb|As op]
+1.4 +1.1 98 +1  1013.4  1.2  754  302  +1.2    0.3     
09 09.10.18 220 (ЮЗ) 40000 м    6/6 930 м 
[Sc]
+5 -0.9 66 +4  1014.9  0.5  755  299           
12 09.10.18 200 (Ю) 50000 м    1/1 1000 м 
[Sc]
+4.3 -1.8 64 +3  1015.2  0.2  756  300           
18 09.10.18 160 (Ю) 35000 м    1/0 средняя 
[Ac As]
+0.7 -1.6 85 -1  1011.8  -2.3  753  303           
21 09.10.18 190 (Ю) 29000 м    10/0 средняя 
[Ac und]
+2.3 -1.7 75 1009.3  -2.4  751  300           
03 10.10.18 180 (Ю) 7000 м  слаб. снег{дождь}  10/10 210 м 
[Frnb|Ns]
+0.5 +0.2 98 -1  1004.3  -2.7  747  301  +0.5    <0.5  равномерный
мокрый или
старый снег
100% 
09 10.10.18 190 (Ю) 28000 м  в посл. час дождь{морось}  10/0 средняя 
[Ac As]
+1.6 +0.8 94 999.2  -2.5  744  298           
15 10.10.18 130 (ЮВ) 7000 м  слаб. снег{дождь}  10/10 210 м 
[Frnb|Ns]
+0.5 -0.1 96 995.3  -1.9  741  298    +2.4     
18 10.10.18 120 (ЮВ) 22000 м  в посл. час снег{дождь}  10/4 300 м средняя 
[Frnb|As op]
+0.6 +0.3 98 993.7  -1.5  740  297           
21 10.10.18 130 (ЮВ) 9000 м  слаб. дождь  10/3 300 м средняя 
[Frnb|As op]
+0.8 +0.5 98 +1  993.5  -0.2  739  297           
03 11.10.18 320 (СЗ) 24000 м    10/10 240 м 
[St]
-0.3 -0.9 96 -1  995.4  1.5  741  299  -0.3    мокрый или
старый снег
50-90% 
15 11.10.18 310 (СЗ) 5-10{11}  30000 м  {ливн. осадки}  1/1 600 м 
[Sc]
+0.4 -1.3 88 -3  1002.5  1.7  746  300    +3.9  0.9     
21 11.10.18 270 (З) 5{10}  30000 м    8/0 средняя 
[Ac As]
-1.7 -3.1 90 -5  1002.2  -0.6  746  303           
03 12.10.18 240 (ЮЗ) 5-10{10}  4900 м  слаб. снег  10/10 270 м 
[Frnb|Ns]
-0.8 -1.2 97 -4  996.9  -3.7  742  300  -1.9    0.7  равномерный
сухой снег
100% 
15 12.10.18 320 (СЗ) 3{11}  7000 м  слаб. снег  10/10 330 м 
[Frnb|Ns]
+0.7 -0.1 94 -1  999.6  0.1  744  299    +1.1     
03 13.10.18 310 (СЗ) 5{10}  6000 м  слаб. снег  10/10 360 м 
[Frnb|Ns]
+0 -1.5 90 -3  1002.9  0.4  746  301  +0    0.4  равномерный
сухой снег
100% 
15 13.10.18 330 (СЗ) 6-11{11}  6000 м  слаб. снег{дождь}  10/3 300 м средняя 
[Frnb|As op]
+0.7 +0.1 96 -3  1007.3  1.7  750  301    +1.6     
21 13.10.18 320 (СЗ) 5{11}  28000 м    10/0 средняя 
[Ac As]
+0.3 -1.1 90 -3  1009.8  1.2  752  303           
03 14.10.18 320 (СЗ) 3{11}  30000 м    4/4 600 м 
[Sc]
+0.1 -1.7 88 -2  1012.1  1.1  753  304  +0.1    0.5  равномерный
мокрый или
старый снег
100% 
09 14.10.18 310 (СЗ) 28000 м    10/10 330 м 
[St]
+1.2 -0.5 88 1013.9  755  303           
18 14.10.18 260 (З) 26000 м    10/10 240 м 
[St]
+0.5 -0.1 96 +1  1015.8  -0.1  756  304           
21 14.10.18 200 (Ю) 28000 м    10/10 750 м 
[Sc]
+0.1 -0.5 96 +1  1016.3  0.5  756  305           
03 15.10.18 190 (Ю) 27000 м  {ливн. осадки}  10/10 660 м кучево-дожд. 
[Cb cap]
+0.2 -0.4 96 +1  1016.3  -0.1  756  305  +0    0.3  равномерный
мокрый или
старый снег
100% 
09 15.10.18 150 (ЮВ) 35000 м    8/1 600 м верхняя 
[Sc|Ci fib]
+2.3 -2.6 70 +1  1015.5  -0.7  756  302           
12 15.10.18 170 (Ю) 35000 м    9/0 средняя, верхняя 
[Ac lent|Cc]
+0.7 -1.3 86 -1  1013.6  -1.9  754  303           
Время (UTC), дата Ветер
(°,м/с) 
Видим.   Явления Облачность Т
(°С)
Тd
(°С)
f(%) Тe
(°С)
Pmin
(гПа)
dP
(гПа)
Po
(мм)
O2
(г/м3)
Тmin Tmax R s Состояние
почвы

Для получения пояснительной информации подведите курсор к названию столбца.

ПОГОДА в Петруни - архив

Всё, что Вы хотите узнать о погоде в Петруни - удобно и подробно!

Выберите нужную дату (начиная с 1 января 2015* года) и нажмите кнопку "Найти".
Будут отображены архивные сводки погоды по пункту Петрунь, начиная с указанной даты.


Отображать данные в формате CSV (для использования в таблицах Excel)


Внимание! Наш архив погоды предназначен исключительно для личного некоммерческого использования в познавательных целях. Если Вам необходимы официальные справки о состоянии погоды (для производственных, юридических, коммерческих и т.п. целей), обращайтесь в органы Росгидромета.

*Примечание: данная дата относится к архиву по метеостанциям СССР (Россия, СНГ, Балтия).
Архив по метеостанциям Зарубежной Европы и Азии (кроме Китая) хранится 10 дней, по другим регионам земного шара (Китай, Африка, Америка, Австралия, Океания) - 1 день.

Петрунь - район местоположения метеостанции


Название, широта, долгота, высота метеостанции:
Петрунь 66.5°ш. 60.8°д. 58 м над ур. моря [Российская Федерация]

Дополнительная информация

В oтличие oт бoльшинства пoгoдных сайтoв мы публикуем пoдрoбную метеoинфoрмацию в детальнoм прoфессиoнальнoм фoрмате.

Характеристики температуры и влажнoсти вoздуха измеряются на высoте 2 м в тени вдали oт зданий и деревьев.
Скoрoсть ветра измеряется на высoте 10 м (на урoвне рoста челoвека скoрoсть ветра ниже в 1.5-2 раза). Если метеoстанция нахoдится в гoрoде или в лесу, тo скoрoсть ветра занижена на 2-4 м/с пo сравнению с oткрытым местoм. Скoрoсть ветра над акватoриями крупных рек и oзёр, а также на вершинах хoлмoв на 2-5 м/с выше, чем в oбычных услoвиях.
Атмoсфернoе давление в разных тoчках местнoсти мoжет значительнo oтличаться oт давления на метеoстанции, в зависимoсти oт услoвий рельефа (при пoдъёме на 10 м давление пoнижается примернo на 1 мм рт.ст.).